QPF
0.00 0.00 0.00 0.00 0.00 0.00 0.00 0.00 0.00 0.00 0.00 0.00 0.00 0.00 0.00 0.00 0.00 0.00 0.00 0.00 0.00 0.00 0.00 0.00 0.00 0.00 0.00 0.00 0.00 0.00 0.00 0.00 0.00 0.00 0.00 0.00 0.00 0.00 0.00 0.00 0.00 0.00 0.00 0.00 0.00
0.00 0.00 0.00 0.00 0.00 0.00 0.00 0.00 0.00 0.00 0.00 0.00 0.00 0.00 0.00 0.00 0.00 0.00 0.00 0.00 0.00 0.00 0.00 0.00 0.00 0.00 0.00 0.00 0.00 0.00 0.00 0.00 0.00 0.00 0.00 0.00 0.00 0.00 0.00 0.00 0.00 0.00 0.00 0.00 0.00
0.00 0.00 0.00 0.00 0.00 0.00 0.00 0.00 0.00 0.00 0.00 0.00 0.00 0.00 0.00 0.00 0.00 0.00 0.00 0.00 0.00 0.00 0.00 0.00 0.00 0.00 0.00 0.00 0.00 0.00 0.00 0.00 0.00 0.00 0.00 0.00 0.00 0.00 0.00 0.00 0.00 0.00 0.00 0.00 0.00
0.00 0.00 0.00 0.00 0.00 0.00 0.00 0.00 0.00 0.00 0.00 0.00 0.00 0.00 0.00 0.00 0.00 0.00 0.00 0.00 0.00 0.00 0.00 0.00 0.00 0.00 0.00 0.00 0.00 0.00 0.00 0.00 0.00 0.00 0.00 0.00 0.00 0.00 0.00 0.00 0.00 0.00 0.00 0.00 0.00
0.00 0.00 0.00 0.00 0.00 0.00 0.00 0.00 0.00 0.00 0.00 0.00 0.00 0.00 0.00 0.00 0.00 0.00 0.00 0.00 0.00 0.00 0.00 0.00 0.00 0.00 0.00 0.00 0.00 0.00 0.00 0.00 0.00 0.00 0.00 0.00 0.00 0.00 0.00 0.00 0.00 0.00 0.00 0.00 0.00
0.00 0.00 0.00 0.00 0.00 0.00 0.00 0.00 0.00 0.00 0.00 0.00 0.00 0.00 0.00 0.00 0.00 0.00 0.00 0.00 0.00 0.00 0.00 0.00 0.00 0.00 0.00 0.00 0.00 0.00 0.00 0.00 0.00 0.00 0.00 0.00 0.00 0.00 0.00 0.00 0.00 0.00 0.00 0.00 0.00
0.00 0.00 0.00 0.00 0.00 0.00 0.00 0.00 0.00 0.00 0.00 0.00 0.00 0.00 0.00 0.00 0.00 0.00 0.00 0.00 0.00 0.00 0.00 0.00 0.00 0.00 0.00 0.00 0.00 0.00 0.00 0.00 0.00 0.00 0.00 0.00 0.00 0.00 0.00 0.00 0.00 0.00 0.00 0.00 0.00
0.00 0.00 0.00 0.00 0.00 0.00 0.00 0.00 0.00 0.00 0.00 0.00 0.00 0.00 0.00 0.00 0.00 0.00 0.00 0.00 0.00 0.00 0.00 0.00 0.00 0.00 0.00 0.00 0.00 0.00 0.00 0.00 0.00 0.00 0.00 0.00 0.00 0.00 0.00 0.00 0.00 0.00 0.00 0.00 0.00
0.00 0.00 0.00 0.00 0.00 0.00 0.00 0.00 0.00 0.00 0.00 0.00 0.00 0.00 0.00 0.00 0.00 0.00 0.00 0.00 0.00 0.00 0.00 0.00 0.00 0.00 0.00 0.00 0.00 0.00 0.00 0.00 0.00 0.00 0.00 0.00 0.00 0.00 0.00 0.00 0.00 0.00 0.00 0.00 0.00
0.00 0.00 0.00 0.00 0.00 0.00 0.00 0.00 0.00 0.00 0.00 0.00 0.00 0.00 0.00 0.00 0.00 0.00 0.00 0.00 0.00 0.00 0.00 0.00 0.00 0.00 0.00 0.00 0.00 0.00 0.00 0.00 0.00 0.00 0.00 0.00 0.00 0.00 0.00 0.00 0.00 0.00 0.00 0.00 0.00
0.00 0.00 0.00 0.00 0.00 0.00 0.00 0.00 0.00 0.00 0.00 0.00 0.00 0.00 0.00 0.00 0.00 0.00 0.00 0.00 0.00 0.00 0.00 0.00 0.00 0.00 0.00 0.00 0.00 0.00 0.00 0.00 0.00 0.00 0.00 0.00 0.00 0.00 0.00 0.00 0.00 0.00 0.00 0.00 0.00
0.00 0.00 0.00 0.00 0.00 0.00 0.00 0.00 0.00 0.00 0.00 0.00 0.00 0.00 0.00 0.00 0.00 0.00 0.00 0.00 0.00 0.00 0.00 0.00 0.00 0.00 0.00 0.00 0.00 0.00 0.00 0.00 0.00 0.00 0.00 0.00 0.00 0.00 0.00 0.00 0.00 0.00 0.00 0.00 0.00
0.00 0.00 0.00 0.00 0.00 0.00 0.00 0.00 0.00 0.00 0.00 0.00 0.00 0.00 0.00 0.00 0.00 0.00 0.00 0.00 0.00 0.00 0.00 0.00 0.00 0.00 0.00 0.00 0.00 0.00 0.00 0.00 0.00 0.00 0.00 0.00 0.00 0.00 0.00 0.00 0.00 0.00 0.00 0.00 0.00
0.00 0.00 0.01 0.00 0.00 0.00 0.00 0.00 0.00 0.00 0.00 0.00 0.00 0.00 0.00 0.00 0.00 0.00 0.00 0.00 0.00 0.00 0.00 0.00 0.00 0.00 0.00 0.00 0.00 0.00 0.00 0.00 0.00 0.00 0.00 0.00 0.00 0.00 0.00 0.00 0.00 0.00 0.00 0.00 0.00
0.00 0.00 0.00 0.00 0.00 0.00 0.00 0.00 0.00 0.00 0.01 0.00 0.00 0.00 0.00 0.00 0.00 0.00 0.00 0.00 0.00 0.00 0.00 0.00 0.00 0.00 0.00 0.00 0.00 0.00 0.00 0.00 0.00 0.00 0.00 0.00 0.00 0.00 0.00 0.00 0.00 0.00 0.00 0.00 0.00
0.01 0.01 0.00 0.00 0.00 0.00 0.00 0.00 0.00 0.01 0.00 0.00 0.00 0.00 0.00 0.00 0.00 0.00 0.00 0.00 0.00 0.00 0.00 0.00 0.00 0.00 0.00 0.00 0.00 0.00 0.00 0.00 0.00 0.00 0.00 0.00 0.00 0.00 0.00 0.00 0.00 0.00 0.00 0.00 0.00
0.01 0.01 0.01 0.00 0.00 0.00 0.00 0.00 0.00 0.01 0.00 0.00 0.00 0.00 0.00 0.00 0.00 0.00 0.00 0.00 0.00 0.00 0.00 0.00 0.00 0.00 0.00 0.00 0.00 0.00 0.00 0.00 0.00 0.00 0.00 0.00 0.00 0.00 0.00 0.00 0.00 0.00 0.00 0.00 0.00
0.00 0.01 0.01 0.01 0.00 0.00 0.00 0.00 0.00 0.00 0.00 0.00 0.00 0.00 0.00 0.00 0.00 0.00 0.00 0.00 0.00 0.00 0.00 0.00 0.00 0.00 0.00 0.00 0.00 0.00 0.00 0.00 0.00 0.00 0.00 0.00 0.00 0.00 0.00 0.00 0.00 0.00 0.00 0.00 0.00
0.01 0.01 0.01 0.01 0.01 0.00 0.00 0.01 0.00 0.00 0.00 0.00 0.00 0.00 0.00 0.00 0.00 0.00 0.00 0.00 0.00 0.00 0.00 0.00 0.00 0.00 0.00 0.00 0.00 0.00 0.00 0.00 0.00 0.00 0.00 0.00 0.00 0.00 0.00 0.00 0.00 0.00 0.00 0.00 0.00
0.01 0.01 0.00 0.01 0.01 0.00 0.01 0.00 0.00 0.00 0.00 0.00 0.00 0.00 0.00 0.00 0.00 0.00 0.00 0.00 0.00 0.00 0.00 0.00 0.00 0.00 0.00 0.00 0.00 0.00 0.00 0.00 0.00 0.00 0.00 0.00 0.00 0.00 0.00 0.00 0.00 0.00 0.00 0.00 0.00
0.00 0.01 0.00 0.01 0.02 0.01 0.00 0.00 0.00 0.00 0.00 0.00 0.01 0.01 0.00 0.00 0.00 0.00 0.00 0.00 0.00 0.00 0.00 0.00 0.00 0.00 0.00 0.00 0.00 0.00 0.00 0.00 0.00 0.00 0.00 0.00 0.00 0.00 0.00 0.00 0.00 0.00 0.00 0.00 0.00
0.00 0.00 0.00 0.00 0.01 0.00 0.00 0.00 0.00 0.00 0.00 0.00 0.01 0.03 0.02 0.00 0.00 0.00 0.00 0.00 0.00 0.00 0.00 0.00 0.00 0.00 0.00 0.00 0.00 0.00 0.00 0.00 0.00 0.00 0.00 0.00 0.00 0.00 0.00 0.00 0.00 0.00 0.00 0.00 0.00
0.00 0.00 0.00 0.00 0.00 0.00 0.00 0.00 0.00 0.00 0.00 0.00 0.01 0.00 0.02 0.01 0.00 0.00 0.00 0.00 0.00 0.00 0.00 0.00 0.00 0.00 0.00 0.00 0.00 0.00 0.00 0.00 0.00 0.00 0.00 0.00 0.00 0.00 0.00 0.00 0.00 0.00 0.00 0.00 0.00
0.00 0.00 0.00 0.00 0.00 0.00 0.00 0.00 0.00 0.00 0.00 0.00 0.00 0.01 0.00 0.01 0.00 0.00 0.00 0.00 0.00 0.00 0.00 0.00 0.00 0.00 0.00 0.00 0.00 0.00 0.00 0.00 0.00 0.00 0.00 0.00 0.00 0.00 0.00 0.00 0.00 0.00 0.00 0.00 0.00
0.00 0.00 0.00 0.00 0.00 0.00 0.00 0.00 0.00 0.00 0.00 0.00 0.00 0.00 0.00 0.00 0.00 0.00 0.00 0.00 0.00 0.00 0.00 0.00 0.00 0.00 0.00 0.00 0.00 0.00 0.00 0.00 0.00 0.00 0.00 0.00 0.00 0.00 0.00 0.00 0.00 0.00 0.00 0.00 0.00
0.00 0.00 0.00 0.00 0.00 0.00 0.00 0.00 0.00 0.00 0.00 0.00 0.00 0.00 0.00 0.00 0.00 0.00 0.00 0.00 0.00 0.00 0.00 0.00 0.00 0.00 0.00 0.00 0.00 0.00 0.00 0.00 0.00 0.00 0.00 0.00 0.00 0.00 0.00 0.00 0.00 0.00 0.00 0.00 0.00
0.00 0.00 0.00 0.00 0.00 0.00 0.00 0.00 0.00 0.00 0.00 0.00 0.00 0.00 0.00 0.00 0.00 0.00 0.00 0.00 0.00 0.00 0.00 0.00 0.00 0.00 0.00 0.00 0.00 0.00 0.00 0.00 0.00 0.00 0.00 0.00 0.00 0.00 0.00 0.00 0.00 0.00 0.00 0.00 0.00
MSLP
1021.08 1021.18 1021.42 1021.24 1021.49 1021.32 1021.66 1021.25 1021.23 1021.09 1020.94 1020.89 1020.25 1019.77 1019.21 1018.67 1017.72 1016.67 1016.50 1016.18 1015.94 1015.58 1015.42 1015.07 1014.31 1013.93 1014.11 1014.45 1014.21 1014.48 1015.50 1015.56 1014.65 1013.89 1013.45 1012.91 1012.69 1012.42 1012.17 1012.04 1011.85 1012.01 1012.20 1012.37 1012.07
1020.68 1021.07 1021.59 1021.33 1021.19 1021.22 1021.59 1021.36 1021.23 1021.11 1020.96 1020.88 1020.38 1020.04 1019.24 1018.77 1018.20 1017.00 1015.85 1015.83 1015.92 1015.88 1015.44 1015.42 1014.97 1014.42 1014.53 1014.59 1014.51 1014.67 1015.38 1014.83 1013.96 1013.44 1013.23 1013.04 1013.02 1013.03 1012.89 1012.57 1012.46 1012.20 1012.05 1012.27 1012.58
1020.50 1020.83 1021.37 1021.48 1021.40 1020.98 1021.19 1021.28 1021.34 1021.11 1021.02 1020.84 1020.44 1020.03 1019.29 1018.59 1018.14 1016.37 1015.78 1015.85 1016.03 1015.96 1015.86 1015.68 1015.14 1014.77 1014.83 1014.74 1014.54 1014.61 1014.78 1014.07 1013.43 1013.33 1012.85 1012.96 1013.16 1013.32 1013.52 1013.46 1013.26 1013.36 1013.30 1013.08 1014.15
1020.38 1020.66 1020.90 1021.31 1021.26 1021.22 1020.89 1020.99 1021.22 1021.29 1021.05 1020.84 1020.45 1019.91 1019.22 1018.41 1017.89 1016.20 1015.90 1016.00 1016.11 1016.08 1015.85 1015.65 1014.96 1014.90 1015.10 1014.98 1014.75 1014.85 1014.19 1014.03 1013.49 1013.68 1013.33 1013.23 1013.08 1013.09 1013.22 1013.36 1013.36 1013.73 1014.95 1015.15 1015.81
1020.23 1020.49 1020.66 1020.96 1021.05 1021.23 1020.97 1021.00 1021.20 1021.37 1021.21 1021.05 1020.35 1019.85 1019.33 1018.37 1016.79 1015.79 1015.84 1015.87 1015.87 1015.92 1015.96 1015.83 1015.34 1015.27 1015.33 1015.21 1014.92 1014.65 1014.39 1014.15 1013.77 1013.50 1013.42 1013.29 1013.47 1013.83 1013.72 1013.62 1014.47 1015.62 1016.16 1017.12 1017.65
1019.83 1020.09 1020.45 1020.64 1020.84 1020.78 1021.04 1021.11 1021.25 1021.32 1021.28 1021.06 1020.72 1019.95 1019.73 1018.51 1015.66 1015.51 1015.78 1015.85 1015.87 1015.88 1015.88 1015.62 1015.98 1015.52 1015.57 1015.34 1015.35 1014.90 1014.69 1014.07 1013.60 1013.41 1013.65 1013.88 1014.08 1014.34 1014.59 1015.59 1016.35 1016.92 1018.10 1018.74 1019.08
1019.66 1019.76 1020.04 1020.29 1020.46 1020.74 1020.83 1021.14 1021.32 1021.31 1021.01 1020.87 1021.03 1020.55 1019.63 1017.51 1016.07 1015.80 1015.56 1015.56 1015.61 1015.67 1015.91 1015.64 1015.96 1016.04 1015.92 1015.71 1015.28 1015.05 1014.91 1014.19 1013.29 1013.17 1013.62 1014.11 1014.89 1015.29 1016.50 1016.25 1017.78 1018.80 1019.60 1020.14 1020.61
1019.55 1019.75 1019.65 1020.02 1020.17 1020.41 1020.77 1021.22 1021.33 1021.11 1021.04 1020.56 1020.92 1020.69 1018.72 1015.81 1015.97 1016.10 1015.67 1015.39 1015.26 1015.46 1015.69 1015.76 1015.83 1016.24 1016.31 1015.92 1015.58 1015.41 1015.37 1014.92 1013.67 1013.52 1013.78 1014.59 1016.12 1017.89 1017.85 1017.49 1019.40 1020.31 1020.98 1021.27 1021.38
1019.81 1019.66 1019.58 1019.68 1020.00 1020.40 1020.67 1021.18 1021.30 1021.03 1020.80 1020.68 1020.85 1020.41 1018.11 1015.60 1015.42 1015.50 1015.71 1015.73 1015.51 1015.40 1015.41 1015.70 1016.20 1016.48 1016.43 1016.55 1016.40 1016.02 1015.60 1015.23 1014.40 1013.97 1014.41 1015.36 1017.43 1019.23 1019.61 1019.38 1020.56 1021.41 1021.90 1022.13 1022.29
1019.70 1019.65 1019.37 1019.45 1019.90 1020.41 1020.88 1021.01 1020.94 1020.87 1020.31 1020.43 1020.33 1019.94 1017.43 1015.60 1014.95 1014.85 1015.25 1015.63 1015.81 1015.71 1015.89 1016.12 1016.81 1016.77 1016.88 1016.73 1016.28 1015.94 1015.76 1015.33 1014.82 1014.79 1014.93 1016.11 1018.76 1020.43 1020.93 1020.88 1021.90 1022.46 1022.71 1022.84 1022.82
1019.47 1019.54 1019.28 1019.32 1019.99 1020.32 1020.99 1021.09 1021.25 1021.00 1020.45 1019.19 1018.77 1017.40 1016.01 1015.46 1014.50 1014.88 1015.03 1015.42 1016.04 1016.35 1016.67 1016.72 1017.14 1016.90 1016.49 1016.16 1015.60 1015.64 1015.53 1015.46 1015.22 1014.91 1015.59 1017.17 1019.29 1020.78 1021.50 1021.61 1022.53 1023.18 1023.49 1023.63 1023.52
1019.41 1019.25 1019.49 1019.64 1020.08 1020.46 1020.54 1020.73 1020.69 1020.93 1019.94 1018.76 1018.05 1017.76 1016.17 1015.91 1015.56 1014.86 1015.09 1015.64 1016.30 1016.74 1016.95 1017.43 1016.85 1015.89 1015.66 1015.45 1015.27 1015.20 1015.34 1015.46 1015.26 1015.29 1016.15 1017.83 1020.41 1021.88 1022.41 1023.19 1023.85 1024.33 1024.62 1024.78 1024.48
1019.57 1019.40 1019.27 1019.69 1020.55 1021.05 1020.75 1020.30 1020.20 1020.60 1020.18 1017.66 1016.71 1015.70 1015.32 1014.97 1014.87 1014.50 1014.97 1015.30 1015.91 1016.42 1016.63 1016.78 1015.67 1015.14 1015.19 1015.04 1014.95 1015.00 1015.18 1015.36 1015.61 1015.86 1016.66 1018.01 1020.36 1021.64 1022.75 1023.51 1024.30 1024.92 1025.39 1025.41 1025.22
1019.31 1019.42 1019.55 1020.15 1021.04 1020.97 1020.86 1020.23 1020.27 1020.47 1020.04 1016.66 1015.46 1013.37 1013.39 1013.91 1013.29 1013.55 1013.92 1014.53 1015.37 1015.50 1016.14 1016.05 1015.10 1014.95 1015.01 1014.55 1014.52 1014.88 1014.92 1015.37 1015.94 1016.78 1017.67 1018.07 1020.04 1021.34 1022.74 1023.89 1024.64 1025.37 1025.77 1026.04 1026.06
1018.95 1019.15 1019.78 1019.70 1020.52 1020.86 1020.29 1020.11 1020.41 1020.40 1019.37 1014.59 1013.23 1011.98 1012.14 1012.93 1012.59 1012.46 1012.74 1013.94 1014.23 1014.72 1015.37 1014.91 1014.35 1014.32 1014.26 1014.17 1014.15 1014.66 1014.97 1015.73 1016.45 1017.41 1018.44 1019.10 1020.57 1021.15 1022.58 1023.85 1024.85 1025.66 1026.01 1026.31 1026.49
1018.72 1018.92 1019.52 1019.95 1020.31 1020.03 1020.03 1020.64 1020.76 1020.65 1017.71 1014.24 1012.53 1012.47 1013.00 1013.06 1012.88 1012.83 1013.08 1013.64 1013.85 1014.48 1014.67 1014.62 1014.00 1013.98 1013.95 1013.89 1013.94 1014.61 1015.21 1016.00 1016.95 1018.25 1018.90 1019.01 1020.53 1021.76 1023.20 1024.47 1025.21 1025.85 1026.30 1026.63 1026.71
1018.50 1018.64 1019.03 1019.29 1019.67 1019.84 1019.99 1020.81 1021.27 1019.61 1016.03 1013.99 1013.19 1013.06 1013.00 1013.17 1013.44 1013.55 1013.62 1013.71 1013.84 1014.50 1014.39 1014.36 1013.79 1013.44 1013.45 1013.95 1014.07 1014.57 1015.90 1017.22 1018.29 1019.20 1018.90 1019.24 1020.74 1022.33 1023.58 1024.63 1025.47 1026.05 1026.66 1026.69 1026.63
1018.09 1018.17 1018.60 1019.03 1019.54 1019.48 1020.19 1020.92 1020.00 1017.36 1015.98 1013.58 1013.31 1013.05 1013.18 1013.21 1013.30 1013.61 1013.97 1014.12 1014.12 1014.10 1014.05 1014.03 1013.72 1012.99 1012.70 1013.13 1013.68 1014.49 1015.62 1017.13 1018.05 1019.15 1019.49 1020.01 1021.52 1022.91 1024.11 1024.94 1025.46 1026.10 1026.45 1026.71 1026.83
1017.60 1018.01 1018.47 1018.86 1019.50 1019.61 1020.09 1020.13 1018.26 1016.35 1014.75 1014.04 1013.56 1013.60 1013.40 1013.47 1013.39 1013.84 1013.61 1013.53 1013.60 1013.85 1014.29 1013.52 1013.02 1012.07 1012.04 1012.52 1013.09 1014.09 1015.12 1016.09 1017.53 1019.03 1020.56 1021.55 1023.09 1023.86 1024.51 1025.23 1025.62 1026.20 1026.56 1026.83 1026.89
1017.21 1017.76 1017.14 1018.19 1019.03 1019.82 1019.73 1018.24 1016.30 1014.65 1014.08 1013.85 1013.78 1013.48 1013.53 1013.40 1013.69 1013.67 1013.64 1012.69 1012.76 1012.76 1013.45 1013.31 1013.09 1012.38 1012.47 1012.52 1013.03 1013.58 1014.71 1016.06 1017.81 1019.54 1021.05 1022.03 1022.92 1023.79 1024.90 1025.56 1026.01 1026.57 1027.00 1027.33 1027.29
1016.46 1016.97 1015.13 1017.22 1018.60 1019.17 1017.57 1015.32 1014.52 1014.39 1014.50 1014.30 1013.54 1013.51 1013.15 1013.30 1013.25 1013.39 1012.97 1012.25 1011.83 1011.82 1012.74 1013.32 1013.64 1013.45 1012.95 1012.66 1012.61 1013.93 1014.77 1015.95 1017.56 1019.34 1020.95 1022.68 1023.47 1023.93 1025.13 1025.53 1026.02 1026.86 1027.31 1027.54 1027.55
1014.83 1015.31 1014.39 1015.34 1017.41 1016.70 1015.40 1014.39 1014.69 1013.95 1014.14 1013.74 1013.46 1013.07 1013.07 1013.14 1012.96 1012.90 1012.47 1011.92 1011.23 1011.57 1012.51 1013.13 1013.70 1013.80 1013.11 1012.53 1012.53 1013.36 1014.45 1015.97 1017.55 1019.69 1021.19 1022.77 1023.69 1024.24 1025.35 1025.72 1026.27 1027.19 1027.61 1027.91 1028.12
1013.54 1013.98 1013.77 1014.04 1014.35 1014.04 1014.19 1014.01 1013.98 1013.74 1013.37 1013.29 1012.82 1012.59 1012.55 1012.98 1013.39 1012.27 1012.19 1011.82 1011.68 1011.97 1012.52 1013.17 1013.91 1014.08 1013.80 1013.62 1013.30 1013.65 1014.53 1015.80 1017.34 1019.32 1021.18 1023.05 1023.81 1024.63 1025.43 1025.85 1026.60 1027.32 1027.76 1028.08 1028.34
1013.18 1013.75 1013.78 1012.83 1011.10 1012.12 1012.80 1012.70 1012.73 1012.94 1012.55 1012.35 1012.08 1012.51 1012.54 1012.54 1012.38 1012.81 1012.38 1012.16 1012.25 1012.45 1012.78 1013.06 1013.88 1014.58 1014.09 1013.79 1014.03 1014.50 1015.00 1016.17 1017.60 1019.71 1021.08 1022.17 1023.57 1024.61 1025.42 1026.10 1026.73 1027.50 1027.97 1028.41 1028.59
1012.94 1012.77 1012.39 1011.76 1011.35 1011.08 1011.83 1011.51 1011.49 1011.54 1011.94 1011.81 1011.70 1011.56 1011.88 1012.05 1012.05 1012.31 1012.14 1012.49 1012.75 1013.08 1013.46 1013.91 1014.73 1014.74 1014.34 1014.06 1014.30 1014.76 1015.62 1016.65 1017.99 1019.15 1020.40 1021.81 1023.05 1023.95 1024.71 1025.73 1026.78 1027.45 1027.99 1028.47 1028.59
1012.32 1012.35 1012.32 1011.60 1011.27 1010.92 1010.85 1010.19 1010.33 1010.67 1010.65 1010.60 1010.54 1010.74 1011.00 1011.05 1010.77 1011.31 1011.63 1012.07 1012.85 1013.81 1014.15 1014.40 1014.83 1014.97 1014.84 1014.93 1015.04 1015.81 1016.34 1017.16 1018.27 1019.31 1020.56 1021.81 1023.03 1023.23 1024.05 1025.35 1026.63 1027.28 1027.88 1028.30 1028.58
1011.43 1011.17 1010.92 1011.11 1011.03 1010.51 1009.68 1009.71 1009.80 1010.32 1009.85 1009.70 1009.80 1010.11 1010.10 1010.04 1010.25 1010.67 1011.24 1012.04 1012.69 1013.57 1014.62 1015.37 1015.27 1015.42 1015.49 1015.51 1016.14 1017.12 1017.09 1017.46 1018.65 1019.63 1020.60 1022.00 1022.32 1022.99 1024.19 1025.47 1026.47 1027.10 1027.79 1028.54 1028.84
Thickness
5632 5631 5629 5632 5631 5634 5634 5639 5639 5641 5643 5644 5650 5654 5661 5666 5676 5682 5680 5686 5688 5692 5693 5696 5702 5703 5700 5694 5700 5696 5664 5658 5676 5684 5686 5701 5699 5705 5714 5708 5716 5717 5712 5717 5725
5626 5623 5621 5624 5626 5629 5628 5630 5632 5634 5636 5637 5643 5646 5654 5659 5665 5670 5682 5683 5683 5684 5687 5683 5685 5690 5681 5686 5685 5676 5656 5670 5683 5693 5693 5696 5695 5694 5695 5696 5699 5703 5713 5717 5715
5619 5618 5613 5615 5618 5623 5624 5625 5625 5627 5629 5631 5636 5640 5646 5654 5658 5671 5676 5676 5675 5677 5677 5678 5681 5684 5677 5677 5678 5677 5664 5681 5687 5691 5698 5692 5691 5694 5687 5682 5689 5691 5698 5705 5691
5613 5611 5611 5610 5611 5613 5618 5619 5619 5619 5622 5624 5629 5635 5641 5649 5644 5665 5668 5669 5668 5670 5672 5671 5677 5674 5666 5665 5671 5666 5678 5679 5685 5678 5683 5683 5690 5688 5686 5687 5694 5690 5677 5678 5673
5604 5604 5605 5604 5605 5605 5610 5611 5611 5611 5614 5616 5622 5628 5634 5640 5647 5662 5662 5663 5664 5664 5662 5661 5663 5661 5657 5660 5661 5665 5669 5672 5676 5677 5677 5680 5676 5676 5674 5684 5676 5666 5663 5657 5654
5600 5600 5598 5598 5598 5602 5601 5603 5603 5605 5606 5609 5614 5621 5625 5624 5657 5658 5655 5659 5658 5657 5655 5659 5651 5659 5655 5656 5654 5659 5658 5663 5671 5671 5670 5666 5666 5671 5670 5659 5657 5654 5644 5640 5638
5592 5594 5593 5592 5593 5594 5595 5595 5594 5596 5600 5604 5605 5611 5617 5628 5647 5651 5654 5654 5654 5652 5647 5654 5651 5646 5648 5646 5656 5656 5651 5656 5666 5667 5664 5662 5653 5653 5647 5654 5639 5633 5628 5623 5618
5582 5583 5588 5586 5588 5589 5588 5586 5586 5590 5592 5599 5599 5604 5615 5645 5646 5642 5648 5649 5654 5651 5648 5649 5648 5642 5641 5646 5646 5645 5643 5633 5655 5656 5659 5653 5630 5623 5633 5636 5620 5614 5608 5607 5604
5568 5572 5577 5581 5580 5579 5580 5578 5579 5582 5586 5591 5593 5598 5612 5640 5640 5643 5640 5638 5642 5646 5646 5645 5638 5631 5636 5625 5622 5629 5622 5626 5639 5653 5649 5642 5623 5613 5613 5616 5605 5596 5590 5588 5585
5560 5562 5567 5571 5571 5568 5568 5569 5572 5573 5580 5582 5588 5594 5614 5627 5637 5641 5638 5634 5630 5634 5631 5629 5619 5618 5614 5614 5614 5623 5622 5623 5627 5635 5637 5628 5595 5594 5595 5596 5586 5579 5576 5571 5570
5550 5552 5558 5559 5557 5560 5556 5558 5562 5565 5568 5588 5594 5605 5621 5624 5636 5630 5632 5627 5621 5619 5608 5616 5605 5601 5611 5620 5628 5626 5622 5617 5619 5628 5620 5607 5586 5580 5578 5577 5566 5561 5558 5556 5556
5536 5542 5542 5545 5544 5544 5546 5548 5549 5549 5561 5578 5586 5590 5606 5609 5608 5622 5624 5610 5606 5598 5603 5598 5597 5616 5622 5625 5624 5622 5614 5607 5615 5622 5613 5592 5570 5563 5563 5555 5549 5544 5540 5538 5538
5519 5526 5531 5531 5526 5525 5530 5535 5536 5536 5540 5575 5585 5595 5599 5604 5602 5612 5614 5607 5600 5595 5597 5590 5609 5622 5617 5616 5614 5611 5605 5604 5602 5606 5602 5586 5570 5564 5556 5550 5541 5531 5525 5524 5521
5506 5510 5515 5512 5510 5508 5510 5513 5518 5519 5506 5568 5579 5601 5601 5599 5601 5614 5612 5606 5597 5596 5593 5591 5612 5609 5607 5609 5609 5595 5608 5603 5597 5582 5571 5586 5560 5560 5548 5537 5529 5519 5511 5506 5505
5493 5499 5498 5499 5497 5493 5499 5499 5499 5501 5488 5573 5581 5601 5600 5590 5603 5607 5610 5596 5592 5595 5590 5591 5605 5602 5598 5602 5608 5595 5602 5592 5586 5574 5565 5565 5552 5553 5548 5531 5516 5506 5501 5494 5490
5481 5488 5488 5487 5485 5484 5483 5479 5478 5474 5489 5548 5572 5570 5568 5576 5584 5588 5587 5590 5592 5585 5587 5587 5600 5596 5595 5600 5600 5600 5591 5583 5574 5558 5531 5565 5559 5533 5518 5511 5504 5496 5487 5484 5478
5470 5474 5480 5479 5478 5470 5468 5463 5447 5460 5529 5547 5547 5553 5554 5557 5560 5563 5566 5569 5567 5558 5565 5580 5583 5592 5596 5585 5590 5586 5565 5539 5538 5529 5545 5558 5542 5513 5505 5495 5487 5480 5473 5474 5470
5460 5465 5471 5469 5463 5461 5454 5438 5433 5486 5507 5542 5540 5541 5536 5547 5549 5549 5547 5547 5556 5564 5559 5559 5552 5579 5591 5582 5577 5571 5561 5540 5546 5533 5536 5549 5513 5510 5498 5487 5484 5480 5472 5465 5460
5454 5459 5462 5459 5448 5443 5436 5428 5445 5487 5516 5521 5525 5514 5521 5533 5533 5533 5536 5546 5553 5553 5544 5554 5558 5583 5588 5585 5580 5568 5553 5558 5544 5538 5506 5510 5495 5496 5490 5482 5480 5469 5460 5453 5450
5449 5449 5463 5449 5436 5426 5421 5441 5466 5503 5512 5507 5500 5509 5507 5519 5522 5506 5524 5549 5551 5558 5553 5552 5546 5570 5570 5575 5571 5567 5564 5539 5527 5521 5521 5509 5504 5476 5474 5469 5466 5447 5439 5434 5438
5441 5442 5468 5442 5424 5413 5428 5459 5482 5492 5490 5487 5498 5498 5512 5509 5518 5504 5520 5540 5552 5556 5552 5548 5540 5545 5555 5554 5556 5548 5543 5541 5528 5507 5503 5478 5470 5476 5465 5459 5453 5441 5424 5425 5429
5443 5445 5458 5447 5421 5424 5435 5463 5470 5478 5481 5486 5491 5496 5504 5506 5509 5511 5515 5531 5546 5546 5537 5540 5528 5525 5541 5555 5555 5549 5542 5532 5503 5517 5490 5465 5446 5475 5453 5451 5444 5433 5421 5411 5413
5447 5446 5444 5442 5435 5437 5445 5449 5458 5465 5475 5479 5486 5495 5500 5500 5492 5514 5516 5526 5530 5532 5528 5529 5513 5510 5521 5532 5541 5540 5538 5531 5518 5502 5496 5451 5450 5454 5445 5440 5430 5414 5412 5411 5405
5436 5434 5426 5430 5460 5451 5444 5447 5450 5464 5474 5480 5488 5487 5491 5489 5499 5495 5506 5515 5518 5521 5522 5524 5515 5505 5513 5519 5521 5521 5526 5522 5515 5482 5465 5459 5445 5451 5440 5416 5416 5411 5406 5399 5393
5423 5428 5430 5436 5440 5457 5448 5455 5457 5459 5468 5476 5482 5486 5488 5484 5496 5494 5503 5503 5507 5509 5509 5505 5497 5506 5514 5521 5520 5522 5517 5511 5509 5501 5490 5461 5458 5451 5431 5421 5402 5398 5398 5395 5392
5418 5420 5415 5423 5429 5442 5446 5454 5458 5465 5471 5474 5481 5488 5488 5488 5502 5489 5497 5500 5495 5494 5491 5496 5491 5498 5504 5510 5507 5510 5509 5506 5502 5494 5474 5460 5452 5456 5449 5428 5415 5410 5397 5391 5387
5419 5420 5421 5419 5419 5434 5447 5455 5460 5463 5472 5482 5483 5483 5483 5494 5500 5502 5501 5498 5493 5487 5473 5474 5477 5482 5492 5500 5491 5472 5484 5497 5485 5477 5473 5460 5453 5447 5442 5426 5410 5403 5395 5384 5378